Terminal Aerodrome Forecast
Issued by NWS

Home | Current Version | Previous Version | Text Only | Print | Product List | Glossary On
Versions: 1 2 3 4 5 6 7 8 9 10 11 12 13
000
FTPA31 PHFO 100542
TAFSTU
TAF
NSTU 100542Z 1006/1106 10010KT P6SM VCTS SCT018CB SCT040 BKN100
      TEMPO 1006/1010 -SHRA BKN015=

USA.gov is the U.S. government's official web portal to all federal, state and local government web resources and services.